Showing default

TELSTAR 1, 340

Orbit data source: Space-Track

TELSTAR 1, 340 is a payload satellite owned by AT&T (US) in LEO that was launched on Tue, 10 Jul 1962 UTC via a THOR DELTA launch vehicle from the Air Force Eastern Test Range (AFETR). Payload-class satellites include a variety of spacecraft equipped with specific instruments for various scientific and technological missions. These include communications satellites like Starlink; space stations such as the ISS; scientific satellites like the Hubble; Earth observation satellites from companies like Planet Labs, Umbra, and HawkEye 360; GPS; miniature CubeSats for education and research; and military/defense satellites.

Loading next visibility...
Identifier
340, 1962-029A
Orbit
LEO
Country
Flag of USUS
Related business
Manufacturer
AT&T/BTL
Mission
Spacecraft
Bus & Motor
TSX, Unknown motor
Mass
77 kg wet, 77 kg dry
Launch date (UTC)
1962-07-10 (64 years ago)
Launch vehicle
THOR DELTA
Launch site
Air Force Eastern Test Range (AFETR)
Object type
Payload
Rocket body
Debris
Shape & HBR
Unknown
Radar Cross Section
Medium (>0.1 m² and <1 m²)

Expand to show TLE details & history
Last TLE update: 6 hours ago

TLE from 6 hours ago
0 TELSTAR 1
1   340U 62029A   26129.74709941  .00000042  00000-0  68910-3 0  9990
2   340  44.8050  31.5783 2426099  65.7821 340.4806  9.12891491128941
Epoch: 2026-05-09T17:55Z
TLE epoch observation values (Epoch: 2026-05-09T17:55:49.389Z)
Latitude
22.93051°
Longitude
-79.86953°
Altitude
1,174.736 km
Speed
8.024 km/s
True Right ascension
03h 46m 35s
True Declination
22° 48' 51"
Sunlit
Object was in daylight at epoch
Visualization orbit readout
Latitude
Unknown
Longitude
Unknown
Altitude
Unknown
Speed
Unknown
Apparent Right ascension
Unknown
Apparent Declination
Unknown
Sunlit
N/A
Visualization observer readout
Local Sidereal Time
07:56:37
Azimuth
Unknown
Elevation
Unknown
Doppler factor
Unknown
Orbital elements
Apogee altitude
5,640.299 km
Perigee altitude
947.287 km
Semi-major axis
9,671.93 km
Eccentricity
0.24261
Inclination
44.805°
RAAN
31.5783°
Arg. of periapsis
65.7821°
True anomaly
327.66741°
Mean anomaly
340.4806°
Eccentric anomaly
334.49522°
Mean motion
2.28178 °/min
Orbital period
157.77 mins
BSTAR
0.0006891
Loading maneuver chart data...
Computing Atmospheric mass density...
Loading historical data...
Loading historical data...
Loading historical data...
Loading historical data...
Loading historical data...
Loading historical data...
Loading historical data...
Other satellites on launch #29 in the year 1962 (1962-07-10 UTC)

Documentation

Showing up to 5 results
|